| time (UTC) | temp F | wind direction | speed MPH | gust MPH | rain 1hr in | rain 24hr in | rain mn in | humidity % | barometer mb |
| 20260902043052 | 63 | 160 | 0.0 | 4.0 | 0.00 | 0.00 | 0.00 | 73 | 1002.2 |
| 20260902043010 | 64 | 159 | 0.0 | 4.0 | 0.00 | 0.00 | 0.00 | 73 | 1002.2 |
| 20260902042606 | 63 | 160 | 0.0 | 4.0 | 0.00 | 0.00 | 0.00 | 73 | 1002.1 |
| 20260902042508 | 64 | 159 | 1.0 | 4.0 | 0.00 | 0.00 | 0.00 | 73 | 1002.1 |
| 20260902042049 | 63 | 160 | 1.0 | 4.0 | 0.00 | 0.00 | 0.00 | 72 | 1002.1 |
| 20260902042011 | 64 | 159 | 1.0 | 4.0 | 0.00 | 0.00 | 0.00 | 72 | 1002.1 |
| 20260902041522 | 63 | 159 | 1.0 | 5.0 | 0.00 | 0.00 | 0.00 | 72 | 1002.1 |
| 20260902041456 | 64 | 160 | 1.0 | 5.0 | 0.00 | 0.00 | 0.00 | 72 | 1002.2 |
| 20260902041054 | 63 | 236 | 0.0 | 5.0 | 0.00 | 0.00 | 0.00 | 72 | 1002.2 |
| 20260902040953 | 64 | 242 | 1.0 | 5.0 | 0.00 | 0.00 | 0.00 | 72 | 1002.2 |
| 20260902040534 | 63 | 242 | 0.0 | 7.0 | 0.00 | 0.00 | 0.00 | 72 | 1002.2 |
| 20260902040514 | 64 | 242 | 0.0 | 7.0 | 0.00 | 0.00 | 0.00 | 72 | 1002.2 |
| 20260902040104 | 64 | 242 | 1.0 | 7.0 | 0.00 | 0.00 | 0.00 | 72 | 1002.2 |
| 20260902040006 | 64 | 242 | 1.0 | 7.0 | 0.00 | 0.00 | 0.00 | 72 | 1002.2 |
| 20260902035537 | 64 | 188 | 0.0 | 4.0 | 0.00 | 0.00 | 0.00 | 72 | 1002.0 |
| 20260902035453 | 64 | 188 | 1.0 | 4.0 | 0.00 | 0.00 | 0.00 | 72 | 1002.1 |
| 20260902035012 | 64 | 188 | 0.0 | 2.0 | 0.00 | 0.00 | 0.00 | 72 | 1002.0 |
| 20260902034955 | 64 | 188 | 0.0 | 2.0 | 0.00 | 0.00 | 0.00 | 72 | 1002.1 |
| 20260902034540 | 64 | 188 | 0.0 | 2.0 | 0.00 | 0.00 | 0.00 | 71 | 1002.0 |
| 20260902034445 | 64 | 188 | 0.0 | 5.0 | 0.00 | 0.00 | 0.00 | 71 | 1002.0 |
| 20260902034114 | 64 | 188 | 0.0 | 5.0 | 0.00 | 0.00 | 0.00 | 71 | 1002.1 |
| 20260902033950 | 64 | 188 | 1.0 | 5.0 | 0.00 | 0.00 | 0.00 | 71 | 1002.1 |
| 20260902033530 | 64 | 188 | 0.0 | 4.0 | 0.00 | 0.00 | 0.00 | 71 | 1002.0 |
| 20260902033510 | 64 | 188 | 1.0 | 4.0 | 0.00 | 0.00 | 0.00 | 71 | 1002.1 |
| 20260902033100 | 64 | 188 | 0.0 | 4.0 | 0.00 | 0.00 | 0.00 | 71 | 1002.0 |
| 20260902033008 | 64 | 188 | 1.0 | 4.0 | 0.00 | 0.00 | 0.00 | 71 | 1002.0 |
| 20260902032529 | 64 | 188 | 0.0 | 4.0 | 0.00 | 0.00 | 0.00 | 70 | 1002.0 |
| 20260902032455 | 65 | 189 | 1.0 | 4.0 | 0.00 | 0.00 | 0.00 | 71 | 1002.0 |
| 20260902032058 | 64 | 188 | 0.0 | 2.0 | 0.00 | 0.00 | 0.00 | 70 | 1001.9 |
| 20260902032015 | 65 | 188 | 0.0 | 2.0 | 0.00 | 0.00 | 0.00 | 70 | 1001.9 |
| 20260902031536 | 64 | 188 | 0.0 | 5.0 | 0.00 | 0.00 | 0.00 | 70 | 1001.9 |
| 20260902031452 | 65 | 188 | 0.0 | 5.0 | 0.00 | 0.00 | 0.00 | 70 | 1002.0 |
| 20260902031048 | 64 | 188 | 0.0 | 5.0 | 0.00 | 0.00 | 0.00 | 70 | 1002.0 |
| 20260902030950 | 65 | 188 | 1.0 | 5.0 | 0.00 | 0.00 | 0.00 | 70 | 1002.0 |
| 20260902030557 | 64 | 189 | 0.0 | 5.0 | 0.00 | 0.00 | 0.00 | 70 | 1002.0 |
| 20260902030509 | 65 | 189 | 1.0 | 5.0 | 0.00 | 0.00 | 0.00 | 70 | 1002.0 |
| 20260902030031 | 64 | 150 | 0.0 | 5.0 | 0.00 | 0.00 | 0.00 | 70 | 1002.0 |
| 20260902030001 | 65 | 150 | 1.0 | 5.0 | 0.00 | 0.00 | 0.00 | 69 | 1002.0 |
| 20260902025552 | 65 | 150 | 1.0 | 6.0 | 0.00 | 0.00 | 0.00 | 69 | 1001.9 |
| 20260902025451 | 65 | 150 | 1.0 | 6.0 | 0.00 | 0.00 | 0.00 | 69 | 1002.0 |
| 20260902025036 | 65 | 165 | 0.0 | 5.0 | 0.00 | 0.00 | 0.00 | 69 | 1001.9 |
| 20260902025017 | 65 | 165 | 1.0 | 5.0 | 0.00 | 0.00 | 0.00 | 69 | 1002.0 |
| 20260902024604 | 65 | 165 | 1.0 | 5.0 | 0.00 | 0.00 | 0.00 | 69 | 1001.9 |
| 20260902024505 | 65 | 178 | 1.0 | 5.0 | 0.00 | 0.00 | 0.00 | 69 | 1001.9 |
| 20260902024040 | 65 | 178 | 0.0 | 5.0 | 0.00 | 0.00 | 0.00 | 69 | 1001.9 |
| 20260902024026 | 65 | 215 | 0.0 | 4.0 | 0.00 | 0.00 | 0.00 | 68 | 1001.9 |
| 20260902023552 | 65 | 292 | 1.0 | 5.0 | 0.00 | 0.00 | 0.00 | 68 | 1001.9 |
| 20260902023500 | 65 | 292 | 1.0 | 5.0 | 0.00 | 0.00 | 0.00 | 68 | 1001.9 |
| 20260902023446 | 65 | 293 | 1.0 | 5.0 | 0.00 | 0.00 | 0.00 | 68 | 1001.9 |
| 20260902023030 | 65 | 292 | 0.0 | 6.0 | 0.00 | 0.00 | 0.00 | 68 | 1001.8 |
| 20260902023006 | 66 | 292 | 1.0 | 6.0 | 0.00 | 0.00 | 0.00 | 68 | 1001.9 |
| 20260902022552 | 65 | 292 | 1.0 | 6.0 | 0.00 | 0.00 | 0.00 | 68 | 1001.8 |
| 20260902022451 | 66 | 292 | 2.0 | 6.0 | 0.00 | 0.00 | 0.00 | 68 | 1001.9 |
| 20260902022121 | 65 | 293 | 1.0 | 9.0 | 0.00 | 0.00 | 0.00 | 68 | 1001.8 |
| 20260902022035 | 66 | 294 | 2.0 | 9.0 | 0.00 | 0.00 | 0.00 | 68 | 1001.8 |
| 20260902021538 | 66 | 294 | 1.0 | 9.0 | 0.00 | 0.00 | 0.00 | 67 | 1001.7 |
| 20260902021506 | 66 | 294 | 1.0 | 9.0 | 0.00 | 0.00 | 0.00 | 67 | 1001.8 |
| 20260902021108 | 66 | 148 | 0.0 | 7.0 | 0.00 | 0.00 | 0.00 | 67 | 1001.7 |
| 20260902021005 | 66 | 148 | 1.0 | 7.0 | 0.00 | 0.00 | 0.00 | 67 | 1001.8 |
| 20260902020541 | 66 | 148 | 2.0 | 7.0 | 0.00 | 0.00 | 0.00 | 67 | 1001.7 |
| 20260902020457 | 66 | 148 | 3.0 | 7.0 | 0.00 | 0.00 | 0.00 | 67 | 1001.7 |
| 20260902020006 | 66 | 269 | 1.0 | 11.0 | 0.00 | 0.00 | 0.00 | 67 | 1001.7 |
| 20260902015949 | 66 | 269 | 1.0 | 11.0 | 0.00 | 0.00 | 0.00 | 67 | 1001.7 |
| 20260902015542 | 66 | 269 | 1.0 | 11.0 | 0.00 | 0.00 | 0.00 | 67 | 1001.7 |
| 20260902015450 | 67 | 269 | 2.0 | 11.0 | 0.00 | 0.00 | 0.00 | 67 | 1001.7 |
| 20260902015115 | 66 | 270 | 1.0 | 7.0 | 0.00 | 0.00 | 0.00 | 67 | 1001.7 |
| 20260902015012 | 67 | 277 | 2.0 | 7.0 | 0.00 | 0.00 | 0.00 | 66 | 1001.7 |
| 20260902014538 | 66 | 255 | 0.0 | 5.0 | 0.00 | 0.00 | 0.00 | 66 | 1001.6 |
| 20260902014518 | 67 | 255 | 1.0 | 5.0 | 0.00 | 0.00 | 0.00 | 66 | 1001.6 |
| 20260902014047 | 66 | 257 | 0.0 | 4.0 | 0.00 | 0.00 | 0.00 | 66 | 1001.6 |
| 20260902014017 | 67 | 257 | 1.0 | 4.0 | 0.00 | 0.00 | 0.00 | 66 | 1001.6 |
| 20260902013604 | 66 | 257 | 0.0 | 5.0 | 0.00 | 0.00 | 0.00 | 66 | 1001.6 |
| 20260902013446 | 67 | 259 | 1.0 | 6.0 | 0.00 | 0.00 | 0.00 | 66 | 1001.6 |
| 20260902013038 | 66 | 259 | 1.0 | 7.0 | 0.00 | 0.00 | 0.00 | 66 | 1001.5 |
| 20260902013010 | 67 | 259 | 1.0 | 7.0 | 0.00 | 0.00 | 0.00 | 66 | 1001.6 |
| 20260902012605 | 66 | 161 | 1.0 | 7.0 | 0.00 | 0.00 | 0.00 | 66 | 1001.5 |
| 20260902012505 | 67 | 277 | 2.0 | 7.0 | 0.00 | 0.00 | 0.00 | 66 | 1001.6 |
| 20260902012037 | 67 | 154 | 1.0 | 8.0 | 0.00 | 0.00 | 0.00 | 65 | 1001.5 |
| 20260902011957 | 67 | 154 | 1.0 | 8.0 | 0.00 | 0.00 | 0.00 | 64 | 1001.5 |
| 20260902011516 | 67 | 149 | 1.0 | 8.0 | 0.00 | 0.00 | 0.00 | 64 | 1001.5 |
| 20260902011449 | 67 | 175 | 2.0 | 8.0 | 0.00 | 0.00 | 0.00 | 64 | 1001.5 |
| 20260902011048 | 67 | 175 | 1.0 | 8.0 | 0.00 | 0.00 | 0.00 | 63 | 1001.5 |
| 20260902011008 | 67 | 258 | 2.0 | 8.0 | 0.00 | 0.00 | 0.00 | 63 | 1001.6 |
| 20260902010518 | 67 | 267 | 1.0 | 8.0 | 0.00 | 0.00 | 0.00 | 63 | 1001.4 |
| 20260902010503 | 67 | 267 | 2.0 | 8.0 | 0.00 | 0.00 | 0.00 | 63 | 1001.4 |
| 20260902010044 | 67 | 217 | 1.0 | 9.0 | 0.00 | 0.00 | 0.00 | 63 | 1001.3 |
| 20260902005954 | 68 | 246 | 1.0 | 9.0 | 0.00 | 0.00 | 0.00 | 63 | 1001.4 |
| 20260902005524 | 67 | 270 | 1.0 | 9.0 | 0.00 | 0.00 | 0.00 | 62 | 1001.3 |
| 20260902005509 | 68 | 269 | 2.0 | 9.0 | 0.00 | 0.00 | 0.00 | 62 | 1001.4 |
| 20260902005044 | 67 | 253 | 0.0 | 5.0 | 0.00 | 0.00 | 0.00 | 62 | 1001.4 |
| 20260902005001 | 68 | 253 | 1.0 | 5.0 | 0.00 | 0.00 | 0.00 | 62 | 1001.4 |
| 20260902004516 | 67 | 253 | 1.0 | 5.0 | 0.00 | 0.00 | 0.00 | 62 | 1001.3 |
| 20260902004456 | 68 | 253 | 2.0 | 5.0 | 0.00 | 0.00 | 0.00 | 62 | 1001.4 |
| 20260902004100 | 68 | 252 | 1.0 | 9.0 | 0.00 | 0.00 | 0.00 | 62 | 1001.3 |
| 20260902004025 | 68 | 252 | 2.0 | 9.0 | 0.00 | 0.00 | 0.00 | 62 | 1001.3 |
| 20260902003512 | 68 | 256 | 2.0 | 9.0 | 0.00 | 0.00 | 0.00 | 62 | 1001.3 |
| 20260902003453 | 68 | 256 | 2.0 | 9.0 | 0.00 | 0.00 | 0.00 | 62 | 1001.3 |
| 20260902003044 | 68 | 180 | 2.0 | 6.0 | 0.00 | 0.00 | 0.00 | 61 | 1001.2 |
| 20260902002955 | 69 | 180 | 2.0 | 6.0 | 0.00 | 0.00 | 0.00 | 61 | 1001.3 |
| 20260902002523 | 69 | 274 | 2.0 | 6.0 | 0.00 | 0.00 | 0.00 | 61 | 1001.2 |
| 20260902002447 | 69 | 274 | 3.0 | 5.0 | 0.00 | 0.00 | 0.00 | 60 | 1001.2 |
| 20260902002047 | 69 | 202 | 2.0 | 7.0 | 0.00 | 0.00 | 0.00 | 60 | 1001.2 |
| 20260902001946 | 70 | 124 | 2.0 | 7.0 | 0.00 | 0.00 | 0.00 | 60 | 1001.3 |
| 20260902001528 | 69 | 121 | 1.0 | 7.0 | 0.00 | 0.00 | 0.00 | 60 | 1001.1 |
| 20260902001510 | 70 | 121 | 2.0 | 7.0 | 0.00 | 0.00 | 0.00 | 60 | 1001.2 |
| 20260902001053 | 70 | 273 | 1.0 | 7.0 | 0.00 | 0.00 | 0.00 | 60 | 1001.2 |
| 20260902001000 | 70 | 150 | 2.0 | 7.0 | 0.00 | 0.00 | 0.00 | 60 | 1001.2 |
| 20260902000534 | 70 | 166 | 3.0 | 7.0 | 0.00 | 0.00 | 0.00 | 60 | 1001.1 |
| 20260902000501 | 70 | 166 | 3.0 | 7.0 | 0.00 | 0.00 | 0.00 | 60 | 1001.2 |
| 20260902000058 | 70 | 156 | 1.0 | 8.0 | 0.00 | 0.00 | 0.00 | 60 | 1001.1 |
| 20260902000007 | 70 | 159 | 1.0 | 8.0 | 0.00 | 0.00 | 0.00 | 60 | 1001.1 |
| 20260901235948 | 70 | 168 | 1.0 | 8.0 | 0.00 | 0.00 | 0.00 | 60 | 1001.2 |
| 20260901235537 | 70 | 169 | 1.0 | 8.0 | 0.00 | 0.00 | 0.00 | 60 | 1001.2 |
| 20260901235511 | 70 | 169 | 2.0 | 8.0 | 0.00 | 0.00 | 0.00 | 60 | 1001.2 |
| 20260901235103 | 70 | 155 | 2.0 | 8.0 | 0.00 | 0.00 | 0.00 | 60 | 1001.2 |
| 20260901235001 | 70 | 138 | 3.0 | 8.0 | 0.00 | 0.00 | 0.00 | 60 | 1001.2 |